< < Back
Terminal Aerodrome Forecast


Current Version              Previous Versions:   1  2  3  4  5  6  7  8  9  

Terminal Aerodrome Forecast

435
FTUS42 KTAE 261727
TAFDHN
TAF
KDHN 261727Z 2618/2718 18010KT P6SM VCSH SCT025 BKN040
     FM262300 19008KT P6SM FEW050 SCT250=

Latest METAR

323
SAUS70 KWBC 271456
MTRDHN
METAR KDHN 271453Z 22009KT 10SM CLR 30/23 A3012 RMK AO2 SLP194 T03000228
51008


USA.gov is the U.S. government's official web portal to all federal, state and local government web resources and services.